This is the latest recevied weather packets stored in our database for station/object W4DHW-4. If no packets are shown the sender has not sent any weather packets the latest 1 day(s).
| Time | Temp. | Humidity | Pressure | Rain* | Wind** | Luminosity | Snow |
|---|---|---|---|---|---|---|---|
| 1778013008 | 26.11° C | 32% | 1011.7 hPa | 0 mm | 2.68 m/s, 257° | 138 W/m² | - |
| 1778012704 | 26.11° C | 32% | 1011.9 hPa | 0 mm | 3.13 m/s, 241° | 138 W/m² | - |
| 1778012400 | 26.11° C | 31% | 1011.8 hPa | 0 mm | 4.92 m/s, 226° | 134 W/m² | - |
| 1778012097 | 26.11° C | 32% | 1011.7 hPa | 0 mm | 3.58 m/s, 168° | 130 W/m² | - |
| 1778011795 | 25.56° C | 32% | 1011.9 hPa | 0 mm | 2.68 m/s, 220° | 144 W/m² | - |
| 1778011493 | 25.56° C | 33% | 1012 hPa | 0 mm | 2.68 m/s, 152° | 147 W/m² | - |
| 1778011188 | 26.11° C | 34% | 1011.9 hPa | 0 mm | 4.02 m/s, 183° | 165 W/m² | - |
| 1778010885 | 26.67° C | 33% | 1012.1 hPa | 0 mm | 6.71 m/s, 225° | 202 W/m² | - |
| 1778010583 | 26.11° C | 33% | 1012.4 hPa | 0 mm | 5.81 m/s, 188° | 649 W/m² | - |
| 1778010280 | 26.11° C | 35% | 1012.4 hPa | 0 mm | 2.68 m/s, 82° | 731 W/m² | - |
| 1778009980 | 25.56° C | 36% | 1012.6 hPa | 0 mm | 4.02 m/s, 183° | 459 W/m² | - |
| 1778009678 | 25.56° C | 37% | 1012.5 hPa | 0 mm | 0.89 m/s, 169° | 408 W/m² | - |
| 1778009375 | 25.56° C | 37% | 1012.6 hPa | 0 mm | 3.58 m/s, 173° | 557 W/m² | - |
| 1778009073 | 25.56° C | 38% | 1012.4 hPa | 0 mm | 3.13 m/s, 237° | 291 W/m² | - |
| 1778008771 | 25.56° C | 38% | 1012.5 hPa | 0 mm | 4.47 m/s, 196° | 326 W/m² | - |
| 1778008470 | 25° C | 37% | 1012.7 hPa | 0 mm | 5.81 m/s, 158° | 566 W/m² | - |
| 1778008166 | 25.56° C | 38% | 1012.9 hPa | 0 mm | 4.92 m/s, 206° | 430 W/m² | - |
| 1778007861 | 25.56° C | 39% | 1012.9 hPa | 0 mm | 4.02 m/s, 200° | 609 W/m² | - |
| 1778007556 | 25.56° C | 40% | 1012.7 hPa | 0 mm | 2.68 m/s, 219° | 508 W/m² | - |
| 1778007254 | 25.56° C | 39% | 1012.6 hPa | 0 mm | 4.92 m/s, 154° | 538 W/m² | - |
| 1778006950 | 26.11° C | 39% | 1012.7 hPa | 0 mm | 4.02 m/s, 251° | 600 W/m² | - |
| 1778006647 | 25.56° C | 38% | 1013 hPa | 0 mm | 4.92 m/s, 192° | 673 W/m² | - |
| 1778006344 | 25.56° C | 37% | 1012.8 hPa | 0 mm | 3.58 m/s, 208° | 682 W/m² | - |
| 1778006041 | 25.56° C | 36% | 1012.9 hPa | 0 mm | 0.89 m/s, 194° | 707 W/m² | - |
| 1778005737 | 26.11° C | 35% | 1012.7 hPa | 0 mm | 3.13 m/s, 282° | 640 W/m² | - |
* Rain latest hour (hover to see other rain measurements)
** Current wind speed in m/s (hover to see current wind gust speed)